Temp
95 95 96 96 87 88 83 84 83 81 77 72 70 72 77 81 81 75 72 70 71 82 81 79 77 77 76 78 77 75 71 69 71 72 77 79 80 79 81 80 80 80 81
92 92 90 88 88 86 85 83 81 79 78 72 73 74 76 82 82 82 78 75 79 82 82 78 76 76 74 74 76 75 71 72 75 73 72 69 76 81 82 81 80 79 80
90 89 89 88 87 84 84 82 79 78 78 76 75 75 76 76 77 77 78 81 85 84 82 80 78 76 75 73 74 74 73 70 72 76 71 67 66 74 76 76 76 77 76
91 89 85 85 86 84 86 82 80 78 79 79 78 79 74 73 77 81 79 83 84 84 83 80 79 76 75 74 74 74 74 73 70 73 75 74 73 68 67 72 74 76 76
92 89 88 85 87 87 87 84 80 79 80 79 80 78 77 76 82 82 81 81 79 82 82 79 79 77 75 75 74 74 73 73 71 71 70 70 73 73 69 68 71 74 77
93 90 88 86 86 86 86 84 79 79 81 82 82 82 81 80 79 79 78 80 78 78 77 80 77 77 75 75 74 75 74 72 72 72 71 69 68 69 69 68 70 72 75
91 86 84 84 84 83 84 83 79 79 82 83 83 83 82 81 79 80 79 78 79 78 75 76 76 77 76 76 76 74 74 73 72 73 71 70 72 71 71 70 70 70 72
89 87 86 84 84 84 83 83 80 79 81 82 82 82 83 81 79 79 79 78 77 77 77 77 77 77 78 79 78 77 76 76 74 74 73 72 73 72 71 70 68 67 69
89 87 87 85 84 83 83 83 81 81 81 80 81 81 82 82 80 80 79 78 77 78 77 77 76 76 77 78 77 74 75 75 74 75 74 73 71 72 72 72 72 69 65
91 89 88 86 86 86 85 86 84 81 81 83 82 82 82 82 80 77 77 75 76 76 75 74 75 75 75 76 75 73 73 71 71 72 73 71 71 73 73 72 72 72 69
91 89 89 88 89 89 87 86 84 83 83 83 83 82 83 79 80 75 77 76 75 75 74 73 73 73 72 74 73 73 74 73 72 72 72 72 73 72 72 73 72 71 70
92 91 90 89 89 88 88 84 85 84 84 83 83 83 82 80 79 76 77 77 75 75 74 73 74 74 73 72 72 71 71 70 69 68 70 70 71 70 70 71 70 70 70
90 91 89 88 87 86 81 73 86 86 85 83 83 83 82 79 78 77 77 77 74 75 75 74 74 72 71 70 70 70 68 67 67 67 66 66 68 66 67 69 70 70 69
87 87 85 84 84 82 82 84 88 88 86 85 84 83 79 79 79 79 77 77 76 74 75 74 73 73 73 70 70 69 68 67 66 65 64 65 65 66 66 67 66 66 66
86 84 83 80 79 80 80 86 89 87 86 86 85 82 78 77 80 78 77 76 75 75 75 75 75 74 72 69 68 69 68 67 66 66 65 63 63 63 64 66 65 66 65
86 83 82 79 78 79 80 84 85 86 86 85 86 82 77 77 76 77 75 75 73 74 75 74 73 71 70 60 62 67 68 67 66 66 67 66 65 63 63 63 63 64 65
86 82 80 79 79 81 85 84 82 84 84 84 81 77 81 78 75 76 72 73 72 73 73 72 71 69 66 59 60 63 69 68 68 68 68 69 68 66 66 64 64 63 63
86 82 82 81 83 85 80 81 82 82 83 76 77 76 75 77 77 75 72 72 72 71 71 70 70 67 63 58 57 60 69 68 66 65 68 66 63 60 65 63 60 59 59
85 81 83 81 78 80 81 81 82 81 75 74 74 74 70 70 75 69 69 70 70 69 70 70 70 67 63 56 55 62 69 67 66 64 59 66 63 57 57 64 61 59 59
83 81 79 74 74 76 79 79 75 73 71 71 67 67 65 63 69 70 68 69 70 68 70 68 66 61 62 53 53 58 71 67 66 64 61 55 55 54 55 67 65 62 63
75 76 74 71 72 75 77 72 69 66 67 66 65 63 61 59 62 65 65 67 67 67 66 66 64 61 55 57 52 54 65 68 67 65 62 60 52 50 51 56 60 57 60
75 74 71 68 69 73 72 66 63 64 65 63 61 59 58 57 58 59 59 60 63 62 62 62 60 57 56 51 51 51 53 61 64 62 61 57 50 50 51 57 52 54 55
74 71 66 66 67 69 68 63 62 63 62 60 58 57 56 55 55 55 55 55 55 55 54 52 53 51 52 52 51 50 53 56 62 60 54 52 50 50 55 55 56 55 60
70 70 68 66 64 66 65 64 64 63 62 59 58 57 55 54 54 54 53 53 53 52 51 51 51 52 54 57 58 56 56 55 57 56 57 56 56 55 59 58 61 62 60
66 67 65 63 63 64 63 64 65 65 63 62 61 59 59 56 52 49 50 52 50 52 53 53 54 53 54 54 48 51 60 60 56 58 58 55 55 57 61 62 63 62 61
67 65 65 63 64 64 64 65 66 66 65 64 64 64 62 61 60 56 52 46 45 44 43 45 50 49 46 44 44 45 47 48 49 57 58 58 62 63 62 62 61 61 60
MSLP
1005.80 1006.65 1007.34 1007.95 1009.21 1009.96 1010.76 1011.46 1012.17 1013.00 1013.74 1014.46 1014.77 1014.43 1014.18 1013.84 1014.19 1014.20 1014.44 1014.30 1014.56 1014.18 1014.10 1014.08 1014.21 1014.08 1014.60 1014.54 1014.36 1014.97 1015.64 1015.40 1014.92 1015.11 1014.42 1014.29 1014.41 1014.90 1014.83 1014.72 1014.87 1015.16 1015.57
1005.61 1006.70 1007.67 1008.78 1009.55 1010.38 1010.99 1011.62 1012.43 1013.25 1013.76 1013.74 1014.38 1014.30 1014.33 1013.79 1014.00 1013.77 1014.04 1013.97 1013.73 1013.59 1013.33 1013.84 1014.08 1014.08 1014.10 1014.16 1014.27 1014.52 1015.47 1015.38 1015.20 1014.90 1014.70 1014.72 1014.48 1014.02 1014.08 1014.35 1014.76 1015.01 1015.08
1005.64 1006.96 1008.02 1008.97 1009.85 1010.72 1011.20 1011.84 1012.79 1013.51 1013.87 1013.85 1014.07 1014.26 1014.26 1014.13 1014.26 1014.08 1013.60 1013.35 1013.04 1012.87 1013.08 1013.34 1013.49 1013.76 1013.84 1013.68 1013.57 1013.89 1014.46 1014.75 1014.56 1014.40 1014.88 1014.94 1014.49 1014.01 1013.57 1014.47 1014.81 1014.94 1014.97
1005.54 1006.95 1008.19 1009.22 1009.94 1010.83 1011.27 1011.86 1012.83 1013.40 1013.81 1014.06 1014.09 1014.09 1014.10 1014.09 1013.92 1013.58 1013.66 1013.32 1012.98 1012.94 1013.24 1013.27 1013.01 1013.32 1013.34 1013.33 1013.36 1013.48 1013.64 1014.03 1014.45 1014.63 1014.62 1014.67 1014.96 1014.75 1014.77 1015.04 1014.94 1014.76 1014.79
1005.13 1006.58 1007.88 1009.30 1009.87 1010.40 1010.91 1011.72 1012.76 1013.30 1013.53 1013.83 1013.85 1013.87 1013.90 1013.64 1013.36 1013.46 1013.49 1013.31 1013.17 1013.11 1013.30 1013.28 1012.98 1013.05 1013.03 1013.04 1013.12 1013.18 1013.25 1013.71 1014.02 1014.36 1014.49 1014.63 1014.43 1014.54 1014.85 1014.82 1014.85 1014.63 1014.47
1005.03 1006.59 1007.96 1009.30 1009.90 1010.61 1011.19 1011.78 1012.68 1013.21 1013.44 1013.58 1013.63 1013.67 1013.73 1013.70 1013.72 1013.82 1013.83 1013.41 1013.37 1013.36 1013.50 1013.01 1013.01 1012.81 1012.85 1012.84 1012.88 1012.90 1013.02 1013.26 1013.73 1014.13 1014.46 1014.61 1014.63 1014.36 1014.56 1014.79 1014.90 1014.63 1014.36
1005.19 1006.87 1008.32 1009.24 1010.10 1010.80 1011.33 1011.98 1012.78 1013.13 1013.37 1013.39 1013.48 1013.63 1013.78 1013.89 1013.86 1013.91 1013.92 1013.71 1013.54 1013.65 1013.70 1013.40 1013.11 1012.85 1012.78 1012.69 1012.76 1012.73 1012.82 1013.12 1013.57 1013.79 1014.19 1014.38 1014.32 1014.34 1014.45 1014.64 1014.89 1014.70 1014.53
1005.57 1007.02 1008.16 1009.17 1009.91 1010.50 1011.19 1011.71 1012.42 1013.00 1013.19 1013.36 1013.51 1013.79 1013.93 1014.00 1013.95 1014.20 1014.29 1014.14 1014.20 1014.17 1014.00 1013.68 1013.38 1013.05 1012.88 1012.58 1012.63 1012.64 1012.83 1013.12 1013.44 1013.70 1014.09 1014.27 1014.18 1014.15 1014.47 1014.39 1014.65 1014.79 1014.71
1005.29 1006.62 1007.80 1008.92 1009.58 1010.24 1010.87 1011.41 1012.03 1012.48 1012.96 1013.36 1013.68 1013.95 1014.16 1014.22 1014.47 1014.57 1014.61 1014.60 1014.67 1014.56 1014.41 1014.08 1013.81 1013.43 1013.12 1012.83 1012.79 1012.85 1012.98 1013.21 1013.40 1013.62 1013.92 1014.16 1014.07 1014.05 1014.14 1014.03 1014.25 1014.68 1014.84
1004.74 1006.18 1007.50 1008.65 1009.27 1009.87 1010.38 1010.82 1011.50 1011.92 1012.52 1013.11 1013.62 1013.92 1014.12 1014.28 1014.53 1014.63 1014.82 1015.14 1015.06 1014.88 1014.79 1014.65 1014.27 1013.87 1013.62 1013.27 1013.11 1013.28 1013.27 1013.45 1013.37 1013.52 1013.87 1013.96 1013.94 1014.00 1014.01 1014.02 1014.30 1014.41 1014.67
1004.40 1005.82 1007.12 1008.23 1008.78 1009.17 1009.61 1010.24 1010.78 1011.33 1012.05 1012.74 1013.35 1013.83 1013.87 1014.25 1014.53 1014.84 1015.09 1015.42 1015.16 1015.16 1015.16 1015.03 1014.62 1014.44 1014.33 1014.10 1013.93 1014.03 1014.02 1014.08 1014.17 1014.15 1014.07 1014.12 1014.12 1014.09 1014.19 1014.17 1014.23 1014.57 1014.81
1004.13 1005.49 1006.64 1007.76 1008.24 1008.66 1009.60 1010.56 1011.49 1011.13 1011.56 1012.45 1013.28 1013.70 1013.98 1014.38 1014.74 1015.03 1015.35 1015.47 1015.23 1015.45 1015.50 1015.26 1014.98 1014.91 1015.03 1014.97 1014.97 1015.07 1015.10 1015.11 1015.16 1015.13 1014.88 1014.86 1014.82 1014.93 1014.94 1014.79 1014.84 1014.92 1014.99
1004.31 1005.43 1006.50 1007.57 1008.16 1008.67 1010.18 1008.02 1010.58 1011.57 1011.29 1012.47 1013.20 1013.56 1013.92 1014.43 1014.85 1015.11 1015.46 1015.52 1015.51 1015.66 1015.66 1015.58 1015.50 1015.47 1015.72 1015.84 1015.90 1015.98 1016.13 1016.26 1016.25 1016.11 1016.02 1015.96 1015.74 1015.78 1015.69 1015.57 1015.40 1015.48 1015.65
1004.71 1005.90 1006.97 1007.97 1008.43 1008.84 1009.71 1010.13 1010.70 1010.81 1011.24 1012.16 1012.82 1013.42 1013.83 1014.31 1014.84 1015.16 1015.64 1015.73 1015.64 1015.65 1015.75 1015.90 1015.99 1015.96 1016.26 1016.46 1016.59 1016.65 1016.73 1016.92 1017.02 1017.02 1017.04 1016.97 1016.80 1016.59 1016.36 1016.12 1016.01 1015.92 1016.09
1005.11 1006.35 1007.58 1008.53 1008.94 1009.49 1009.55 1009.63 1009.89 1010.42 1011.26 1012.05 1012.61 1013.06 1013.52 1014.27 1014.81 1015.27 1015.73 1016.01 1016.02 1016.04 1016.04 1016.14 1016.28 1016.47 1016.82 1017.14 1017.11 1017.21 1017.23 1017.35 1017.47 1017.57 1017.62 1017.70 1017.66 1017.45 1017.15 1017.01 1016.94 1016.69 1016.76
1005.74 1006.63 1007.97 1009.03 1009.59 1010.08 1010.32 1010.29 1010.46 1010.98 1011.49 1012.21 1012.68 1013.17 1013.55 1014.24 1014.74 1015.19 1015.82 1016.17 1016.31 1016.27 1016.29 1016.62 1016.79 1017.16 1017.64 1017.67 1017.57 1017.55 1017.54 1017.54 1017.57 1017.67 1017.81 1018.09 1018.17 1018.07 1017.92 1017.79 1017.68 1017.45 1017.43
1006.11 1006.95 1008.20 1009.22 1009.79 1010.08 1010.42 1010.73 1011.14 1011.71 1012.22 1012.79 1013.25 1013.46 1013.82 1014.20 1014.52 1015.17 1015.65 1016.20 1016.59 1016.43 1016.70 1017.08 1017.38 1017.69 1017.95 1018.02 1018.03 1017.92 1017.80 1017.75 1017.79 1017.82 1017.95 1018.12 1018.66 1018.53 1018.50 1018.48 1018.46 1018.39 1018.21
1006.13 1007.31 1008.23 1009.25 1009.64 1010.07 1010.88 1011.38 1011.97 1012.36 1012.73 1013.44 1013.88 1014.29 1014.62 1014.52 1014.61 1015.23 1015.66 1016.07 1016.70 1016.83 1017.09 1017.41 1017.70 1018.14 1018.66 1018.50 1018.27 1018.06 1018.03 1018.15 1018.42 1018.48 1018.43 1018.66 1019.05 1019.16 1019.04 1019.29 1019.33 1019.30 1019.21
1006.37 1007.63 1008.67 1009.62 1010.41 1010.92 1011.61 1012.14 1012.54 1012.85 1013.56 1014.02 1014.62 1014.98 1015.38 1015.41 1015.14 1015.42 1015.86 1016.15 1016.70 1017.00 1017.27 1017.54 1017.85 1018.38 1019.03 1019.10 1018.76 1018.39 1018.29 1018.61 1018.99 1019.35 1019.30 1019.25 1019.55 1019.57 1019.43 1019.43 1019.64 1019.85 1020.00
1007.59 1008.47 1009.45 1011.02 1011.70 1012.26 1012.34 1012.85 1013.50 1013.97 1014.53 1015.20 1015.89 1016.23 1016.50 1016.42 1015.80 1015.73 1016.17 1016.49 1016.91 1017.16 1017.55 1017.94 1018.57 1018.77 1019.36 1019.43 1019.11 1018.65 1018.26 1018.51 1019.08 1019.72 1020.12 1020.17 1020.20 1020.00 1019.58 1019.49 1019.52 1019.79 1019.80
1009.65 1010.09 1010.73 1011.23 1012.31 1013.05 1013.41 1013.95 1014.70 1015.57 1016.13 1016.43 1016.82 1017.13 1017.33 1017.22 1016.76 1016.62 1016.78 1016.91 1017.21 1017.53 1018.12 1018.56 1019.30 1019.72 1019.93 1019.93 1019.60 1019.11 1018.95 1018.65 1018.94 1019.54 1020.44 1020.99 1020.93 1020.46 1020.20 1019.99 1020.01 1020.20 1020.12
1010.93 1011.41 1011.79 1012.86 1013.61 1013.83 1014.33 1015.26 1016.00 1016.53 1016.92 1017.33 1017.64 1017.96 1018.12 1018.02 1017.83 1017.73 1017.80 1017.81 1017.84 1018.24 1018.71 1019.33 1019.77 1020.60 1020.81 1020.35 1020.15 1019.92 1019.58 1019.30 1019.74 1020.32 1020.93 1021.28 1021.26 1021.01 1020.65 1020.55 1020.50 1020.35 1020.24
1011.67 1012.45 1013.17 1013.88 1014.51 1014.61 1015.12 1016.08 1016.72 1016.99 1017.41 1017.71 1018.14 1018.55 1018.78 1018.83 1018.80 1018.77 1018.78 1018.86 1019.07 1019.32 1019.79 1020.29 1020.77 1021.32 1021.35 1021.06 1020.97 1020.67 1020.42 1020.24 1020.33 1020.90 1021.23 1021.41 1021.41 1021.20 1020.91 1020.73 1020.59 1020.42 1020.27
1012.32 1013.06 1013.74 1014.50 1015.20 1015.65 1016.06 1016.60 1016.89 1017.19 1017.53 1017.91 1018.41 1018.90 1019.19 1019.54 1019.68 1019.69 1019.84 1019.99 1020.26 1020.54 1020.72 1020.94 1021.31 1021.66 1021.55 1021.54 1021.67 1021.43 1021.31 1021.16 1021.30 1021.29 1021.32 1021.44 1021.41 1021.09 1020.79 1020.69 1020.59 1020.47 1020.30
1012.81 1013.39 1014.33 1015.27 1015.69 1015.93 1016.30 1016.74 1017.00 1017.25 1017.49 1017.71 1018.14 1018.72 1019.34 1019.71 1020.17 1020.60 1020.78 1021.00 1021.35 1021.29 1021.36 1021.54 1021.68 1021.85 1021.86 1022.16 1022.28 1022.04 1021.76 1021.83 1021.76 1021.67 1021.49 1021.47 1021.25 1021.01 1020.40 1020.37 1020.49 1020.56 1020.57
1013.50 1014.10 1014.66 1015.31 1016.02 1016.31 1016.34 1016.80 1017.01 1017.13 1017.40 1017.40 1017.74 1018.36 1018.94 1019.30 1019.74 1020.41 1021.11 1021.88 1022.01 1022.09 1022.03 1021.91 1022.02 1022.31 1022.44 1022.45 1022.46 1022.27 1022.05 1021.98 1022.11 1021.84 1021.31 1020.92 1020.45 1020.18 1020.21 1020.26 1020.38 1020.51 1020.78
Wind_Speed
11 12 9 10 13 9 7 7 7 7 6 4 3 5 3 1 2 5 7 9 11 8 4 4 7 6 5 8 8 5 3 4 10 4 3 2 6 9 9 6 5 7 7
12 12 8 11 8 8 6 6 7 4 4 5 4 1 3 2 1 3 4 10 12 6 4 5 5 7 7 9 8 6 6 7 7 2 0 3 6 8 11 6 5 6 7
14 11 8 9 8 7 7 7 7 6 3 2 1 1 3 4 3 4 5 1 2 4 2 5 4 5 5 7 8 6 8 6 4 5 4 4 4 4 2 6 3 6 4
14 12 9 7 8 10 9 9 7 7 4 1 2 2 4 4 3 4 4 2 5 4 4 6 5 5 4 6 7 5 7 5 5 1 4 6 3 3 0 2 5 4 5
16 15 12 12 8 8 7 10 9 6 6 6 5 2 3 6 3 3 5 5 5 3 5 4 5 5 4 5 6 7 7 5 5 3 2 3 4 5 4 1 2 2 4
15 14 13 12 9 7 7 7 9 6 7 3 4 2 3 4 4 5 6 5 1 4 7 7 6 5 5 5 5 5 7 6 5 3 4 3 3 3 3 3 2 2 2
15 14 13 11 9 9 8 9 10 7 3 4 3 2 2 2 5 3 5 6 6 6 6 7 6 6 4 4 4 4 5 4 4 6 4 4 5 3 2 2 3 4 1
15 14 15 13 11 11 10 10 9 7 6 5 4 3 0 4 4 6 5 4 5 6 8 7 7 9 6 2 2 2 2 3 3 5 4 3 5 3 4 4 4 2 2
16 15 15 14 12 11 12 12 12 10 8 5 5 4 1 3 4 4 5 5 6 6 8 10 9 9 8 6 4 1 2 2 4 5 5 4 5 4 6 4 3 3 2
16 16 14 13 12 12 10 12 11 11 10 8 6 5 4 4 2 5 7 7 6 7 8 9 10 9 10 9 7 5 4 4 3 1 3 4 4 4 4 3 1 2 2
15 15 15 14 13 13 12 10 11 10 9 8 5 5 4 8 5 5 7 5 5 6 7 7 6 9 10 10 9 10 9 9 8 7 6 6 5 2 3 3 2 1 2
15 14 15 15 13 13 14 15 12 10 9 8 6 5 6 7 4 6 5 5 6 6 5 6 7 9 9 10 11 11 10 10 9 9 10 10 7 9 7 4 5 4 4
14 12 13 11 8 6 9 8 11 9 10 8 7 6 8 7 6 5 5 4 5 6 6 7 8 10 10 9 9 9 9 9 9 9 10 10 9 7 6 5 5 5 4
12 12 12 8 6 6 7 7 8 10 10 9 8 5 8 7 6 5 6 4 5 6 7 5 5 8 10 8 7 8 8 8 9 10 10 9 8 7 6 5 5 5 5
12 14 11 9 9 5 4 4 3 8 9 5 5 6 7 9 6 6 7 6 7 6 5 5 7 8 9 8 6 6 7 7 9 9 8 8 10 12 9 4 6 5 5
13 15 13 10 8 6 5 5 6 7 7 6 3 5 7 7 6 7 8 6 5 4 6 5 9 9 7 12 15 7 6 5 5 5 6 6 10 11 12 14 15 10 4
12 15 14 9 9 10 5 4 7 6 4 3 4 5 2 5 5 8 9 8 4 5 6 6 8 7 7 11 12 14 5 5 5 5 4 7 8 5 7 10 13 15 13
14 15 12 9 8 8 8 8 7 3 3 8 6 7 8 4 4 7 8 9 5 5 5 5 7 7 6 12 13 14 6 7 10 9 6 7 8 7 6 9 9 10 10
15 12 11 11 9 9 7 5 3 4 10 6 8 7 9 8 2 9 7 6 7 4 5 5 6 8 7 12 10 8 8 8 8 8 10 7 7 11 10 7 7 6 6
13 13 14 12 10 7 6 5 7 10 9 9 9 8 8 8 4 6 6 5 5 5 6 8 8 11 6 12 11 9 2 7 6 6 6 13 8 10 12 3 4 4 3
14 13 11 10 9 6 5 8 10 9 8 8 7 7 7 7 7 6 5 4 4 6 7 8 8 8 9 9 12 14 7 2 5 6 5 4 9 9 10 10 7 4 5
12 14 12 9 5 6 8 9 8 6 6 8 8 8 7 6 6 8 7 7 5 7 6 5 7 6 5 9 10 11 11 10 7 6 4 2 4 7 9 6 5 7 6
10 12 11 9 8 7 9 9 6 7 8 8 8 8 8 7 7 7 6 6 7 6 5 4 4 3 3 4 10 12 11 9 7 4 5 4 3 5 3 2 6 7 5
9 10 10 9 8 7 8 8 7 7 9 9 9 8 8 8 7 6 6 5 5 4 4 4 3 2 2 4 3 3 4 8 6 4 1 3 6 6 2 2 4 3 4
10 9 10 8 7 7 7 6 6 7 8 9 9 8 7 8 8 7 5 5 4 2 3 2 2 2 3 2 2 3 2 1 2 1 1 2 3 5 4 2 2 2 2
8 7 8 8 7 6 9 7 4 5 6 7 7 6 6 6 7 7 7 11 8 9 9 8 4 2 6 4 1 4 5 6 6 3 4 6 4 2 3 2 2 4 1
Wind_Direction
168 159 183 149 107 127 132 168 177 95 106 114 69 290 311 199 137 274 98 190 273 285 274 270 276 274 240 251 252 240 183 296 272 230 340 240 193 200 215 181 186 200 215
150 147 128 86 122 134 147 155 105 110 162 134 199 131 301 308 236 253 190 207 233 264 255 255 265 270 272 258 248 246 205 230 237 236 194 272 266 230 200 193 174 219 193
144 133 141 139 139 146 161 147 135 147 109 120 129 197 297 297 304 262 275 72 320 277 297 274 273 262 256 267 266 249 221 224 247 217 190 242 245 335 130 158 198 222 205
148 150 146 144 178 166 180 137 143 147 143 203 305 200 255 289 241 236 95 325 248 235 266 276 287 276 265 264 263 255 231 206 216 212 247 270 272 324 169 182 226 225 189
158 159 157 150 180 152 155 142 155 148 165 194 222 263 296 264 39 15 334 282 319 60 333 336 321 301 281 267 264 261 237 209 215 181 165 264 297 205 216 249 265 183 230
141 141 131 160 135 130 138 134 133 186 164 198 192 184 347 11 359 359 303 6 122 74 11 344 340 307 295 279 267 259 253 217 212 201 212 214 246 254 182 199 256 285 227
131 126 143 150 153 137 146 146 163 186 196 202 163 120 75 319 289 348 14 323 3 18 358 349 331 331 307 280 255 261 247 196 185 209 201 230 240 251 262 161 243 239 29
135 152 158 152 162 156 149 149 159 183 192 179 132 82 12 307 26 56 351 17 11 10 4 352 352 341 343 324 314 263 162 159 203 198 224 244 247 245 227 189 188 263 262
152 157 157 160 162 154 162 159 164 160 170 163 133 143 125 56 53 50 7 27 24 8 11 0 360 0 357 345 352 300 283 178 220 209 212 223 256 264 277 186 163 174 213
153 151 155 164 166 166 169 165 164 160 171 143 163 162 165 107 61 87 58 38 28 26 24 9 7 14 13 21 31 22 20 354 350 58 219 230 235 263 312 325 349 191 198
156 148 157 164 167 169 181 150 164 163 141 157 140 170 163 105 60 86 79 59 48 41 36 17 21 33 22 33 37 45 34 48 41 29 33 28 1 345 352 352 325 229 202
151 155 153 160 170 176 167 167 173 145 152 127 144 157 132 104 80 106 87 74 57 48 53 29 33 49 46 40 41 40 37 38 42 35 42 31 40 37 27 34 36 18 360
133 148 144 157 161 166 114 191 144 152 138 138 164 190 134 118 106 99 100 74 91 75 57 39 45 60 52 42 47 61 58 48 39 41 42 32 41 48 37 34 38 48 44
139 130 123 141 119 102 118 133 158 142 137 177 166 163 121 128 113 111 120 85 73 74 70 48 68 70 66 53 55 57 65 62 56 51 44 40 31 36 44 47 59 72 72
148 129 140 115 109 93 57 100 136 127 137 156 184 154 120 127 132 126 96 82 66 77 75 76 63 68 61 44 38 71 67 73 67 65 64 52 53 52 44 42 33 53 71
155 141 138 130 131 138 218 183 112 133 149 173 131 152 126 137 147 130 123 107 93 88 84 81 72 71 62 17 26 35 84 63 78 81 90 115 76 59 61 62 55 45 81
164 143 138 156 165 178 191 139 88 90 126 96 13 43 271 173 172 143 134 122 114 106 98 60 79 81 77 33 21 12 91 80 73 61 93 82 50 63 83 54 44 38 42
157 140 142 162 165 148 67 75 92 95 108 66 47 23 4 321 199 137 137 123 132 125 114 106 96 93 59 36 21 351 85 71 53 33 64 80 60 26 65 78 65 53 46
129 125 132 103 86 92 105 100 121 112 88 58 55 29 15 345 304 127 137 136 138 136 126 111 96 98 67 28 19 13 99 80 76 59 32 54 42 359 2 109 112 109 105
112 111 104 98 83 68 80 88 54 58 57 49 42 27 5 343 325 126 134 131 135 127 105 85 73 66 59 26 13 7 142 130 118 103 73 50 30 7 12 119 109 79 109
98 101 98 92 93 91 91 86 78 66 57 59 56 44 25 11 17 58 59 115 130 97 108 98 82 72 34 43 15 20 44 356 92 89 75 39 6 21 18 47 44 46 345
131 104 96 89 83 113 103 87 92 92 86 82 73 59 44 30 34 52 46 44 83 95 85 93 82 47 25 32 32 36 44 42 73 78 86 88 27 47 33 61 12 358 334
102 101 94 89 64 58 100 116 109 103 95 88 83 74 63 49 41 45 50 59 56 75 73 86 84 72 14 39 32 41 37 51 86 84 93 86 350 326 53 327 301 314 284
93 110 123 114 111 96 99 117 124 120 113 105 101 88 76 71 58 57 48 57 60 67 80 94 105 134 95 72 45 44 61 60 65 107 152 263 275 254 164 297 284 20 7
78 83 98 105 109 109 105 111 118 121 115 113 106 102 98 94 83 61 44 64 50 45 115 110 117 140 114 94 19 354 65 141 54 309 3 299 261 254 199 125 27 133 321
116 112 117 126 135 124 119 118 119 130 142 134 118 118 121 117 110 106 89 55 60 50 62 65 78 57 65 105 18 18 33 58 38 271 254 247 232 13 37 40 162 138 191